CZ-4B DEB, 43661

Orbit data source: Space-Track

CZ-4B DEB, 43661 is space debris in SSO originally from a launch on Wed, 24 Oct 2018 UTC launched from the Taiyaun Space Center, China (TSC). Debris objects in space refer to the collection of defunct objects orbiting the Earth. Examples of debris include non-operational satellites, rocket bodies, and fragments generated from explosions, collisions, or faulty payload assembly.

Loading next visibility...
Identifier
43661, 2018-081E
Orbit
SSO
Last TLE update
16 hours ago
Origin
Manufacturer
SAST
Mission
Spacecraft
Bus & Motor
Unknown
Mass
Unknown
Launch date (UTC)
2018-10-24 (7 years ago)
Launch vehicle
Unknown
Launch site
Taiyaun Space Center, China (TSC)
Object type
Payload
Rocket body
Debris
Shape & HBR
Unknown
Radar Cross Section
Small (<0.1 m²)

Expand to show TLE details & history

TLE from 16 hours ago
0 CZ-4B DEB
1 43661U 18081E   25128.61352191  .00000153  00000-0  16127-3 0  9993
2 43661  99.1659 160.7295 0012832 356.0474   4.0581 13.89327988331425
Epoch: 2025-05-08T14:43Z
Definitive object data (Epoch: 2025-05-08T14:43:28.293Z)
Latitude
0.00004°
Longitude
73.18011°
Altitude
924.487 km
Speed
7.394 km/s
True Right ascension
10h 42m 55s
True Declination
0° 00' 00"
Sunlit
Object was in daylight at TLE epoch
Visualization TLE readout
Latitude
13.67285°
Longitude
71.58262°
Altitude
924.266 km
Speed
7.395 km/s
Apparent Right ascension
07h 45m 51s
Apparent Declination
-20° 57' 32"
Sunlit
Object is in daylight
Visualization observer readout
Local Sidereal Time
14:29:34
Azimuth
260.057° W
Elevation
-21.428°
Doppler factor
1
Orbital elements
Apogee altitude
937.584 km
Perigee altitude
918.833 km
Semi-major axis
7,306.346 km
Eccentricity
0.0012832
Inclination
99.1659°
RAAN
160.7295°
Arg. of periapsis
356.0474°
True anomaly
4.06852°
Mean anomaly
4.0581°
Eccentric anomaly
4.06331°
Mean motion
3.4753 °/min
BSTAR
0.00016127
Orbital period
103.59 mins
Loading maneuver chart data...
Loading SW <> Apogee altitude chart data...
Loading historical data...
Loading historical data...
Loading historical data...
Loading historical data...
Loading historical data...
Loading historical data...
Loading historical data...

CZ-4B DEB Visibility forecast

Observer location: undefined°, undefined°

Span
Click to sort rows by Start time (UTC) header in descending order
Start Az.
Max El. time (UTC)
Max El. Az.
Max El.
End time (UTC)
End Az.
8 mins2025-05-09 13:48:45.336Z50.504° ENE2025-05-09 13:52:45.336Z98.28° ESE19.984°2025-05-09 13:56:45.336Z141.419° SSE
9 mins2025-05-09 15:30:45.336Z0.236° NNE2025-05-09 15:34:45.336Z298.527° NW39.016°2025-05-09 15:39:45.336Z216.527° SW
9 mins2025-05-10 01:25:45.336Z133.896° SE2025-05-10 01:29:45.336Z69.313° E35.707°2025-05-10 01:34:45.336Z0.096° NNE
8 mins2025-05-10 03:08:45.336Z220.49° SW2025-05-10 03:11:45.336Z257.907° W22.711°2025-05-10 03:16:45.336Z318.34° NNW
|